This is the latest recevied weather packets stored in our database for station/object KC2G. If no packets are shown the sender has not sent any weather packets the latest 10 day(s).
| Time | Temp. | Humidity | Pressure | Rain* | Wind** | Luminosity | Snow |
|---|---|---|---|---|---|---|---|
| 1777486555 | 17.78° C | 52% | 1012.1 hPa | 0 mm | 0.89 m/s, 131° | - | - |
| 1777485655 | 17.22° C | 53% | 1012.1 hPa | 0 mm | 1.34 m/s, 72° | - | - |
| 1777484755 | 17.22° C | 53% | 1012.6 hPa | 0 mm | 0.89 m/s, 95° | - | - |
| 1777483855 | 16.67° C | 54% | 1012.9 hPa | 0 mm | 0.89 m/s, 140° | - | - |
| 1777482955 | 16.67° C | 53% | 1012.9 hPa | 0 mm | 1.34 m/s, 141° | - | - |
| 1777482054 | 16.67° C | 53% | 1012.9 hPa | 0 mm | 1.34 m/s, 85° | - | - |
| 1777481155 | 16.67° C | 52% | 1013.2 hPa | 0 mm | 0.45 m/s, 125° | - | - |
| 1777480256 | 16.67° C | 52% | 1013.3 hPa | 0 mm | 0.89 m/s, 89° | - | - |
| 1777479354 | 16.67° C | 52% | 1013.5 hPa | 0 mm | 0.45 m/s, 162° | - | - |
| 1777478455 | 16.67° C | 51% | 1013.6 hPa | 0 mm | 0.89 m/s, 112° | - | - |
| 1777477695 | 16.11° C | 52% | 1013.8 hPa | 0 mm | 0.89 m/s, 67° | - | - |
| 1777477554 | 16.11° C | 52% | 1013.8 hPa | 0 mm | 0.89 m/s, 67° | - | - |
| 1777476655 | 16.11° C | 52% | 1013.8 hPa | 0 mm | 0.45 m/s, 66° | - | - |
| 1777475755 | 16.11° C | 52% | 1013.8 hPa | 0 mm | 0.89 m/s, 96° | - | - |
| 1777474855 | 16.11° C | 49% | 1013.8 hPa | 0 mm | 0.89 m/s, 102° | - | - |
| 1777474609 | 16.11° C | 48% | 1013.8 hPa | 0 mm | 1.79 m/s, 77° | - | - |
| 1777473955 | 16.11° C | 49% | 1013.8 hPa | 0 mm | 0.89 m/s, 83° | - | - |
| 1777473093 | 16.11° C | 48% | 1013.8 hPa | 0 mm | 1.79 m/s, 77° | - | - |
| 1777473056 | 16.11° C | 48% | 1013.8 hPa | 0 mm | 1.79 m/s, 77° | - | - |
| 1777472154 | 16.11° C | 48% | 1014 hPa | 0 mm | 1.34 m/s, 144° | - | - |
| 1777471338 | 15.56° C | 51% | 1014.1 hPa | 0 mm | 0.89 m/s, 83° | - | - |
| 1777471256 | 15.56° C | 51% | 1014.1 hPa | 0 mm | 0.89 m/s, 83° | - | - |
| 1777470354 | 15.56° C | 54% | 1014.6 hPa | 0 mm | 0.89 m/s, 93° | - | - |
| 1777469455 | 15.56° C | 56% | 1014.5 hPa | 0 mm | 0.45 m/s, 51° | - | - |
| 1777468555 | 14.44° C | 57% | 1014.6 hPa | 0 mm | 0.89 m/s, 100° | - | - |
* Rain latest hour (hover to see other rain measurements)
** Current wind speed in m/s (hover to see current wind gust speed)